SCP
1 1 1 0 0 0 0 0 0 0 0 0 0 0 0 0 0 0 0 0 0 0 0 0 0 0 0 0 0 0 0 0 0 1 1 1 1 2 2 2 1 1 1 1 1 1 1 1 1
1 1 1 0 0 0 0 0 0 0 0 0 0 0 0 0 0 0 0 0 0 0 0 0 0 0 0 0 0 0 0 0 0 0 1 1 1 1 1 1 1 1 1 1 1 1 2 1 1
1 1 0 0 0 0 0 0 0 0 0 0 0 0 0 0 0 0 0 1 0 0 0 0 0 0 0 0 0 0 0 0 0 0 1 1 1 1 1 1 1 1 1 1 1 2 2 2 2
0 0 0 0 0 0 0 0 0 0 0 0 0 0 0 0 0 0 1 1 0 0 0 0 0 0 0 0 0 0 0 0 0 0 0 1 1 1 1 1 1 1 1 1 2 3 3 3 3
0 0 0 0 0 0 0 0 0 0 0 0 0 0 0 0 0 0 1 1 0 0 0 0 0 0 0 0 0 0 0 0 0 0 0 0 1 1 1 0 1 1 1 2 3 5 5 4 3
0 0 0 0 0 0 0 0 0 0 0 0 0 0 0 0 0 0 1 1 0 0 0 0 0 0 0 0 0 0 0 0 0 0 0 0 1 1 0 0 0 1 1 1 3 5 5 4 3
0 0 0 0 0 0 0 0 0 0 0 0 0 0 0 0 0 0 0 0 0 0 0 0 0 0 0 0 0 0 0 0 0 0 0 0 0 0 1 0 0 0 1 1 2 4 4 3 3
0 0 0 0 0 0 0 0 0 0 0 0 0 0 0 0 0 0 0 0 0 0 0 0 0 0 0 0 0 0 0 0 0 0 0 0 0 0 1 1 0 0 1 1 2 3 3 3 2
0 0 0 0 0 0 0 0 0 0 0 0 0 0 0 0 0 0 0 0 0 0 0 0 0 0 0 0 0 0 0 0 0 0 0 0 0 0 1 1 1 0 1 1 1 2 2 2 1
0 0 0 0 0 0 0 0 0 0 0 0 0 0 1 1 1 0 0 0 0 0 0 0 0 0 0 0 0 0 0 0 0 0 0 0 0 0 0 1 1 1 1 1 1 1 1 1 1
0 0 0 0 0 0 0 0 0 0 0 0 0 1 1 1 1 1 1 1 1 0 0 0 0 0 0 0 0 0 0 0 0 0 0 0 0 0 0 0 1 0 0 0 0 0 0 0 0
0 0 0 0 0 0 0 0 0 0 0 0 0 1 1 2 1 1 1 1 1 1 0 0 0 0 0 0 0 0 0 0 0 0 0 0 0 0 0 0 0 0 0 0 0 0 0 0 0
0 0 0 0 0 0 0 0 0 0 0 0 0 1 1 1 2 2 2 1 1 1 1 1 1 1 0 0 0 0 0 0 0 0 0 0 0 0 0 0 0 0 0 0 0 0 0 0 0
0 0 0 0 0 0 0 0 0 0 0 1 1 1 1 1 1 1 2 2 2 2 2 2 1 1 0 0 0 0 0 0 0 0 0 0 0 0 0 0 0 0 0 0 0 0 0 0 0
0 0 0 0 0 0 0 0 0 0 0 1 1 1 1 1 1 1 3 4 4 3 3 2 2 1 1 1 1 0 0 0 0 0 0 0 0 0 0 0 0 0 0 0 0 0 0 0 0
0 0 0 0 0 0 0 0 0 0 0 0 1 1 1 1 1 2 3 4 4 3 3 2 2 2 1 1 1 1 1 0 0 0 0 0 0 0 0 0 0 0 0 0 0 0 0 0 0
0 0 0 0 0 0 0 0 0 0 0 0 0 1 2 2 2 3 3 4 4 3 3 2 2 2 2 1 1 1 1 0 0 0 0 0 0 0 0 0 0 0 0 0 0 0 0 0 0
0 0 0 0 0 0 0 0 0 0 0 0 1 2 3 3 3 3 3 3 3 3 2 2 2 1 1 1 0 0 0 0 0 0 0 0 0 0 0 0 0 0 0 0 0 0 0 0 0
0 0 0 0 0 0 0 0 0 0 0 0 1 2 3 3 2 2 2 2 2 2 2 2 1 1 0 0 0 0 0 0 0 0 0 0 0 0 0 0 0 0 0 0 0 0 0 0 0
0 0 0 0 0 0 0 0 0 0 0 0 1 2 3 2 2 1 2 2 1 1 1 1 1 0 0 0 0 0 0 0 0 0 0 0 0 0 0 0 0 0 0 0 0 0 0 0 0
0 0 0 0 0 0 0 0 0 0 0 0 1 2 2 2 1 1 1 1 1 1 1 1 0 0 0 0 0 0 0 0 0 0 0 0 0 0 0 0 0 0 0 0 0 0 0 0 0
0 0 0 0 0 0 0 0 0 0 0 0 1 1 2 1 1 1 1 1 0 0 0 0 0 0 0 0 0 0 0 0 0 0 0 0 0 0 0 0 0 0 0 0 0 0 0 0 0
0 0 0 0 0 0 0 0 0 0 0 0 0 1 1 1 1 1 1 1 0 0 0 0 0 0 0 0 0 0 0 0 0 0 0 0 0 0 0 0 0 0 0 0 0 0 0 0 0
0 0 0 0 0 0 0 0 0 0 0 0 0 1 1 1 1 1 1 1 0 0 0 0 0 0 0 0 0 0 0 0 0 0 0 0 0 0 0 0 0 0 0 0 0 0 0 0 0
0 0 0 0 0 0 0 0 0 0 0 0 0 1 1 1 1 1 0 0 0 0 0 0 0 0 0 0 0 0 0 0 0 0 0 0 0 0 0 0 0 0 0 0 0 0 0 0 0
0 0 0 0 0 0 0 0 0 0 0 0 1 1 1 1 1 0 0 0 0 1 1 1 1 0 0 0 0 0 0 0 0 0 0 0 0 0 0 0 0 0 0 0 0 0 0 0 0
0 0 0 0 0 0 0 0 0 0 0 1 1 1 1 1 1 0 0 0 1 1 1 1 1 0 0 0 0 0 0 0 0 0 0 0 0 0 0 0 0 0 0 0 0 0 0 0 0
0 0 0 0 0 0 0 0 0 0 0 1 1 1 1 1 1 0 0 1 1 1 1 1 1 1 0 0 0 0 0 0 0 0 0 0 0 0 0 0 0 0 0 0 0 0 0 0 0
0 0 0 0 0 0 0 0 0 0 0 1 1 1 1 1 1 1 0 1 1 1 1 1 1 1 1 1 0 0 0 0 0 0 0 0 0 0 0 0 0 0 0 0 0 0 0 0 0
0 0 0 0 0 0 0 0 0 0 0 1 1 1 1 1 1 1 1 1 1 1 1 1 1 1 1 1 1 0 0 0 0 0 0 0 0 0 0 0 0 0 0 0 0 0 0 0 0
Wind_Speed
1 0 2 3 6 6 3 1 2 2 4 5 7 8 7 5 3 3 2 3 5 3 2 3 6 6 7 7 7 7 7 8 8 8 8 8 9 9 8 8 8 7 7 7 7 6 6 6 7
0 1 3 5 5 4 2 1 3 4 6 6 7 7 6 5 4 4 2 4 5 4 3 4 6 7 7 7 7 7 7 7 8 8 8 8 9 9 8 8 8 7 7 7 7 6 6 6 6
0 1 4 5 4 3 3 1 3 5 5 5 5 5 5 4 3 3 4 6 5 4 3 4 7 7 7 7 7 7 7 7 8 8 8 9 9 9 9 9 8 7 7 6 6 6 6 6 6
2 4 5 6 5 2 4 3 4 6 6 5 5 5 3 2 3 4 6 7 6 4 3 4 7 7 7 7 7 7 7 7 8 8 8 8 9 9 9 9 8 8 7 6 6 5 6 6 6
4 5 6 5 4 2 3 4 5 6 4 5 6 5 3 1 4 7 7 7 6 4 3 4 7 7 7 7 7 7 7 7 8 8 8 8 8 9 9 8 8 8 7 6 6 7 7 6 6
5 5 5 4 3 2 2 4 7 8 6 5 6 5 1 1 4 5 6 6 6 5 3 3 6 7 7 7 6 6 6 7 7 7 8 8 8 8 8 8 8 8 8 7 7 8 7 7 7
5 4 4 4 3 3 3 4 6 6 5 3 5 5 2 1 3 5 6 5 5 5 4 2 2 3 5 6 6 6 6 6 6 6 7 7 8 8 8 8 8 8 8 8 8 8 8 8 8
5 5 3 2 3 2 2 4 4 6 4 4 5 6 4 4 4 4 5 5 4 4 4 3 2 2 2 2 4 5 5 6 6 6 6 6 6 7 7 7 7 7 7 8 8 8 9 9 9
4 6 3 2 4 3 3 5 3 4 6 3 3 4 6 7 5 5 4 3 3 3 3 3 2 2 2 2 2 3 4 5 5 4 5 5 2 2 3 4 6 6 7 7 8 8 9 9 9
5 4 2 3 4 4 4 4 3 5 6 4 4 4 6 7 6 5 4 4 3 3 3 3 3 3 2 2 2 1 1 2 2 2 2 2 1 1 2 4 5 6 7 8 8 9 9 7 5
4 4 2 3 4 4 4 3 3 6 3 4 6 7 6 6 5 5 4 4 4 4 4 4 4 3 2 1 2 1 1 1 1 1 1 1 1 2 2 2 3 4 6 5 6 6 4 4 4
5 3 3 3 3 4 3 3 3 4 4 6 8 9 7 7 6 6 5 4 3 4 4 4 4 3 3 2 2 1 1 1 1 0 1 2 1 2 1 2 2 2 2 4 4 3 5 5 5
4 2 2 4 4 4 5 4 4 2 3 5 7 8 7 7 6 5 5 4 4 4 4 4 5 4 3 2 1 2 1 1 1 1 2 3 2 2 2 2 2 2 3 3 3 4 5 5 5
3 3 2 4 4 3 5 2 3 2 4 7 7 6 7 6 6 4 5 4 4 4 4 4 4 4 4 3 2 2 1 1 2 1 2 3 3 3 2 2 2 2 2 3 3 4 4 4 4
4 3 1 1 3 3 5 2 2 5 6 6 6 6 6 5 5 6 7 6 5 5 5 4 5 4 4 3 3 2 2 2 2 2 2 3 3 3 3 2 2 2 2 3 4 4 4 4 4
3 3 0 3 3 3 6 3 6 5 7 6 6 5 5 5 5 6 7 6 5 5 5 4 5 5 5 3 3 2 2 3 2 2 3 3 3 4 3 3 2 2 3 3 3 3 4 4 4
1 1 3 3 3 3 4 4 6 5 7 7 6 5 5 4 4 5 6 7 6 6 5 4 5 5 5 4 3 3 3 3 2 2 2 3 4 4 4 3 2 3 3 2 3 3 3 3 3
3 3 2 3 3 3 3 4 5 5 6 7 6 5 5 5 6 5 6 6 6 5 6 5 5 5 5 3 3 3 3 2 2 2 2 3 3 4 4 3 3 3 3 3 3 3 3 3 2
4 3 3 4 4 3 4 5 6 5 5 5 5 5 5 6 5 5 5 6 6 5 5 5 5 4 4 3 2 2 1 1 1 1 2 3 3 3 3 3 3 3 3 3 3 3 4 3 2
3 1 1 2 2 2 3 4 5 6 7 8 8 7 7 5 3 4 5 5 6 6 5 5 6 5 4 3 2 2 2 1 1 1 2 2 2 2 3 3 2 2 3 3 3 3 2 1 1
2 3 3 2 1 1 1 3 3 3 3 5 6 7 7 8 8 6 6 5 6 6 6 6 6 5 4 4 3 3 3 2 2 2 1 1 1 1 2 3 3 3 3 3 2 2 3 2 0
2 3 3 2 3 2 2 2 6 4 2 4 5 6 7 7 7 7 6 6 6 6 6 6 6 5 4 4 4 4 3 2 2 1 1 0 1 1 2 3 3 3 2 3 2 2 2 3 1
4 3 1 1 2 1 1 2 7 2 4 6 7 7 7 7 7 8 7 7 7 6 6 6 6 5 4 4 5 5 3 2 1 1 1 0 0 1 1 2 3 3 2 3 2 2 2 2 2
2 3 5 4 4 2 4 4 6 4 7 6 6 6 6 7 7 6 5 5 5 5 5 6 6 4 4 4 5 5 4 3 2 1 1 0 0 0 1 2 2 3 3 3 2 2 2 2 2
4 6 4 4 3 5 3 3 7 6 5 7 7 7 6 6 7 6 6 6 6 6 6 6 6 4 4 4 4 5 5 4 4 3 2 2 1 1 1 2 2 2 2 2 2 2 2 2 2
2 7 6 3 3 5 3 3 6 3 3 4 6 6 6 6 6 7 7 7 7 7 6 6 6 5 4 4 4 4 4 3 3 3 3 3 2 2 2 2 2 2 2 3 2 2 1 1 1
3 3 6 5 2 2 4 3 4 3 3 4 5 5 6 6 6 6 5 5 6 6 6 7 7 5 4 4 4 3 4 3 3 3 2 2 2 2 2 2 2 2 2 2 3 2 2 2 1
4 5 4 3 2 3 3 3 4 2 3 3 4 5 5 5 5 4 4 4 5 6 5 5 6 6 5 4 4 3 3 3 3 3 2 2 2 2 2 2 3 2 2 2 3 2 1 2 1
1 2 4 3 4 4 3 6 5 7 7 7 6 6 7 7 6 5 4 3 3 4 4 4 4 4 4 4 3 3 3 3 3 3 3 2 2 2 3 3 3 3 2 3 3 3 2 2 1
4 5 6 4 3 4 3 7 4 5 5 6 6 6 6 7 6 5 5 4 3 4 4 4 4 4 4 4 3 3 3 3 3 3 2 2 2 2 3 3 3 3 3 3 4 4 3 3 2
Wind_Direction
217 86 97 67 56 56 63 40 112 78 66 61 73 79 82 66 78 123 220 135 129 134 121 104 94 92 92 88 84 82 81 81 83 82 81 82 85 85 86 85 83 82 83 83 79 79 88 89 87
65 77 67 61 76 80 57 63 83 93 131 118 77 71 76 72 83 113 127 136 131 132 124 109 99 95 93 89 86 84 84 86 85 84 82 83 86 87 85 86 87 85 83 82 82 86 90 91 90
220 80 79 67 81 123 137 153 110 90 103 94 76 53 66 94 106 138 154 142 125 120 117 114 104 100 97 93 88 87 88 87 86 86 86 87 88 87 84 84 83 83 81 82 83 86 92 93 92
78 47 57 73 84 123 139 142 118 92 64 60 92 68 53 78 141 144 138 135 125 123 120 122 109 103 99 96 92 90 90 90 90 90 90 91 90 88 84 81 78 76 75 76 86 94 97 94 92
69 70 64 74 79 80 103 113 104 93 82 74 89 93 73 41 117 125 135 138 131 131 134 128 116 112 109 105 98 94 93 92 91 92 94 93 90 87 84 82 78 74 69 68 87 94 94 92 93
58 64 80 90 90 80 91 104 93 94 106 108 100 103 105 121 121 133 140 141 140 144 146 134 124 122 116 110 104 101 100 97 95 90 93 96 94 90 85 81 76 70 66 69 86 88 87 85 84
97 87 105 116 95 83 114 109 101 112 111 122 125 106 126 159 149 139 142 141 142 146 142 137 130 120 120 117 111 108 106 101 98 95 93 96 96 91 85 81 77 71 69 72 79 79 78 80 82
117 97 85 96 104 96 105 101 117 117 117 126 119 130 171 203 170 132 130 133 138 142 149 153 146 125 121 120 122 120 114 104 98 99 96 97 93 90 87 84 80 74 70 71 73 78 77 74 80
84 84 109 156 138 129 106 93 74 76 91 75 87 147 170 161 140 115 105 105 126 142 156 159 162 161 159 153 134 123 116 100 98 89 90 87 62 55 67 81 81 74 68 69 72 73 71 67 72
83 107 165 170 150 142 119 114 116 85 78 72 72 89 126 136 134 135 136 137 137 147 158 164 171 173 166 145 110 71 80 76 80 80 77 71 69 55 64 61 69 66 64 67 68 64 63 60 58
109 135 129 108 130 125 109 100 102 116 112 156 152 150 147 140 146 153 160 155 157 162 153 159 160 160 146 125 122 97 73 65 60 87 102 95 76 57 51 42 45 50 57 55 54 50 49 58 62
105 127 136 138 129 115 119 113 94 127 179 176 158 152 152 149 160 163 166 167 147 143 153 158 156 152 147 136 128 120 111 100 98 107 116 111 89 75 71 61 54 51 56 63 57 58 58 64 63
101 128 125 134 111 120 106 105 118 145 162 145 138 140 154 161 167 167 162 156 141 142 146 148 151 146 139 125 133 117 113 113 123 100 105 114 110 100 89 72 68 68 68 71 67 62 63 64 62
150 126 117 126 118 122 116 117 105 197 151 140 145 154 158 163 167 156 151 147 151 151 147 140 140 139 129 124 117 104 109 103 90 91 102 110 114 111 104 91 78 75 75 78 82 79 75 70 68
113 97 55 157 146 159 111 58 191 195 154 154 166 169 161 161 153 159 164 160 165 157 146 143 138 126 120 115 112 101 95 91 81 81 94 103 105 107 105 98 90 85 88 89 88 85 80 75 68
66 78 136 250 173 176 120 201 239 199 161 169 178 174 167 162 164 168 158 153 157 148 141 139 130 119 112 106 103 96 90 89 81 81 87 94 102 106 101 100 100 95 89 88 94 89 84 72 63
32 172 220 261 211 164 145 210 239 200 171 180 181 180 175 161 160 168 160 154 154 150 144 130 122 123 118 109 98 93 86 78 80 80 87 95 99 104 102 102 105 101 91 86 103 93 99 94 80
214 204 213 224 232 163 174 219 237 200 178 189 185 182 176 171 185 177 163 154 149 145 139 133 125 123 118 103 84 69 63 54 59 68 79 93 99 105 103 102 99 99 93 80 87 98 88 100 100
185 184 204 229 218 167 201 222 231 207 186 186 179 177 177 190 196 171 157 150 143 140 138 140 136 136 123 110 104 94 80 58 52 64 84 90 98 105 107 108 103 100 104 110 106 101 87 85 97
185 182 206 250 207 172 209 242 232 204 197 191 183 180 182 178 169 163 161 155 152 154 152 148 150 147 141 139 141 138 133 118 100 61 66 90 106 117 122 127 130 120 113 107 108 114 107 101 108
207 185 198 201 263 11 84 321 270 250 208 198 185 179 180 178 177 175 169 171 162 161 162 158 160 151 144 136 114 88 63 46 35 31 27 48 119 130 133 137 138 136 133 142 147 142 132 133 58
231 221 185 153 112 258 155 262 272 241 229 203 197 183 182 181 176 173 169 167 169 174 164 157 157 150 147 137 133 135 134 149 204 206 217 298 116 140 138 141 142 144 141 149 168 146 138 132 135
208 221 169 172 147 313 252 180 275 237 222 222 206 196 186 179 173 173 171 171 170 164 156 155 152 150 151 146 146 142 143 171 180 158 134 46 29 140 143 149 142 139 144 158 159 141 139 136 143
154 50 25 46 75 304 239 175 266 226 210 206 200 193 182 171 167 164 161 151 148 143 146 150 148 156 161 150 150 150 156 159 148 155 164 207 265 182 163 153 147 148 152 158 163 161 154 147 130
82 84 29 359 9 258 241 176 246 233 199 179 174 180 175 162 157 156 154 154 153 149 152 154 151 162 170 160 161 167 167 164 169 178 182 175 165 185 211 162 161 162 166 163 153 144 164 158 142
174 138 155 200 229 279 313 221 262 255 178 153 150 149 147 152 158 162 168 167 164 161 160 159 164 167 170 170 174 178 170 169 181 187 182 185 186 198 195 177 170 170 169 162 153 148 161 146 155
152 177 174 152 233 268 282 293 322 25 85 109 124 134 155 161 165 168 168 167 164 167 172 171 169 168 174 177 168 169 176 172 178 187 183 186 193 198 190 179 173 179 177 169 152 151 175 141 148
161 158 94 115 176 270 289 252 235 214 169 158 157 156 168 167 157 154 161 167 176 178 178 173 169 171 179 180 180 176 186 184 179 172 176 181 192 185 174 178 179 177 170 167 155 160 180 143 174
150 132 122 134 161 169 256 267 223 193 187 179 183 177 174 173 168 168 171 171 172 170 165 164 170 167 173 178 180 172 179 180 170 175 194 194 189 186 178 180 182 182 175 171 163 175 171 163 187
176 180 149 158 228 179 193 266 277 194 190 181 184 185 181 174 172 170 166 154 152 166 169 169 168 172 183 182 169 170 170 168 169 182 199 194 189 192 186 178 186 196 189 188 183 189 186 179 190